Stations météo

réclame
Mon MeteoGroup
Vinga, Suède (2516): Température de l'air & dewpoint: 16.08.2019 02:00:00 - 22.08.2019 02:00:00 (CEST)Vinga, Suède (2516): Vitesse du vent & gusts: 16.08.2019 02:00:00 - 22.08.2019 02:00:00 (CEST)Vinga, Suède (2516): Direction du vent: 16.08.2019 02:00:00 - 22.08.2019 02:00:00 (CEST)Vinga, Suède (2516): reduced air pressure: 16.08.2019 02:00:00 - 22.08.2019 02:00:00 (CEST)Vinga, Suède (2516): visibility: 16.08.2019 02:00:00 - 22.08.2019 02:00:00 (CEST)Vinga, Suède (2516): Quantités de précipitations: 16.08.2019 02:00:00 - 22.08.2019 02:00:00 (CEST)
Date & Time tt [°C] td [°C] ff [km/h] ff [knt] fx [km/h] fx [knt] dd ppp [hPa] vv [km] rr [mm]
22.08.2019 02:00:00 16,3 11,9 27 15 34 18 WSW 1025,0 40 0,0
22.08.2019 01:00:00 16,1 11,7 27 15 34 18 WSW 1025,1 41 0,0
22.08.2019 00:00:00 16,1 11,7 26 14 37 20 WSW 1025,0 39 0,0
21.08.2019 23:00:00 16,0 11,6 31 17 39 21 WSW 1025,0 41 0,0
21.08.2019 22:00:00 16,1 10,8 27 15 37 20 WSW 1024,7 30 0,0
21.08.2019 21:00:00 15,9 8,9 25 13 36 20 WSW 1024,5 31 0,0
21.08.2019 20:00:00 16,1 8,3 24 13 33 18 W 1024,4 32 0,0
21.08.2019 19:00:00 16,8 8,7 22 12 33 18 W 1024,4 42 0,0
21.08.2019 18:00:00 17,2 9,6 22 12 37 20 W 1024,4 32 0,0
21.08.2019 17:00:00 17,2 9,6 25 13 37 20 W 1024,2 36 0,0
21.08.2019 16:00:00 17,4 9,3 23 12 37 20 W 1024,0 25 0,0
21.08.2019 15:00:00 17,5 9,4 26 14 39 21 W 1023,9 32 0,0
21.08.2019 14:00:00 17,4 9,1 27 15 40 21 W 1023,6 27 0,0
21.08.2019 13:00:00 17,3 10,2 23 13 36 20 W 1023,3 27 0,0
21.08.2019 12:00:00 16,0 9,2 25 13 36 19 W 1022,9 37 0,0
21.08.2019 11:00:00 16,2 10,7 25 14 35 19 WSW 1022,5 30 0,0
21.08.2019 10:00:00 15,8 10,3 23 12 36 19 WSW 1022,3 30 0,0
21.08.2019 09:00:00 15,6 9,7 26 14 37 20 WSW 1022,0 34 0,0
21.08.2019 08:00:00 14,8 10,0 28 15 39 21 W 1021,6 33 0,0
21.08.2019 07:00:00 15,3 11,7 26 14 33 18 WSW 1021,1 28 0,0
21.08.2019 06:00:00 15,4 11,6 21 12 32 17 WSW 1020,8 28 0,0
21.08.2019 05:00:00 15,2 12,3 23 13 35 19 WSW 1020,6 21 0,0
21.08.2019 04:00:00 15,6 12,9 27 15 36 19 WSW 1020,2 17 0,0
21.08.2019 03:00:00 15,8 12,5 27 15 36 19 SW 1020,1 20 0,0
21.08.2019 02:00:00 15,8 12,4 29 16 39 21 WSW 1019,9 19 0,0
21.08.2019 01:00:00 16,1 12,1 31 17 38 21 WSW 1019,8 20 0,0
21.08.2019 00:00:00 16,3 12,1 30 16 45 24 WSW 1019,5 23 0,0
20.08.2019 23:00:00 16,8 11,5 35 19 41 22 WSW 1019,4 27 0,0
20.08.2019 22:00:00 17,0 12,1 20 11 24 13 SSW 1019,1 31 0,0
20.08.2019 21:00:00 17,1 12,0 17 9 21 12 SSW 1018,9 37 0,0
20.08.2019 20:00:00 16,8 12,3 17 9 22 12 SSW 1018,5 35 0,0
20.08.2019 19:00:00 16,9 12,4 19 10 34 18 SW 1018,3 24 0,0
20.08.2019 18:00:00 15,8 13,1 34 19 41 22 SW 1018,2 8 0,1
20.08.2019 17:00:00 17,6 11,8 30 16 37 20 SSW 1017,5 24 0,0
20.08.2019 16:00:00 17,3 13,0 32 17 37 20 SSW 1017,1 20 0,0
20.08.2019 15:00:00 17,4 12,1 29 16 34 18 SSW 1016,9 25 0,0
20.08.2019 14:00:00 17,3 13,6 29 16 39 21 SSW 1016,9 18 0,0
20.08.2019 13:00:00 17,2 13,3 32 17 37 20 SSW 1016,7 16 0,0
20.08.2019 12:00:00 17,0 13,5 27 15 33 18 SSW 1016,4 14 0,0
20.08.2019 11:00:00 16,7 13,6 28 15 35 19 SSW 1016,3 12 0,0
20.08.2019 10:00:00 16,9 13,4 27 15 34 18 SSW 1016,0 12 0,0
20.08.2019 09:00:00 16,3 13,4 29 16 34 18 SSW 1015,4 11 0,0
20.08.2019 08:00:00 15,9 13,4 28 15 36 19 SW 1014,7 10 0,0
20.08.2019 07:00:00 15,7 13,5 30 16 40 22 SW 1014,5 9 0,0
20.08.2019 06:00:00 15,6 12,9 34 18 41 22 SW 1014,1 11 0,0
20.08.2019 05:00:00 15,8 13,3 34 18 45 24 SW 1013,6 10 0,0
20.08.2019 04:00:00 15,6 13,3 36 20 45 24 SW 1013,3 11 0,0
20.08.2019 03:00:00 15,9 12,8 38 21 51 27 SW 1012,8 14 0,0
20.08.2019 02:00:00 16,1 12,8 42 23 51 28 SW 1012,3 12 0,0
20.08.2019 01:00:00 16,4 13,7 36 19 42 23 SW 1012,2 13 0,0
20.08.2019 00:00:00 16,7 14,0 35 19 43 23 SW 1011,9 12 0,0
19.08.2019 23:00:00 17,2 14,1 36 19 45 25 SW 1011,6 12 0,0
19.08.2019 22:00:00 17,2 14,3 35 19 40 22 SSW 1011,3 11 0,0
19.08.2019 21:00:00 17,1 14,4 32 18 37 20 SSW 1010,9 12 0,0
19.08.2019 20:00:00 16,5 13,0 23 12 36 20 SSW 1010,6 14 0,6
19.08.2019 19:00:00 15,6 11,6 28 15 49 27 SSW 1010,4 7 4,2
19.08.2019 18:00:00 17,1 13,8 30 16 39 21 SW 1010,1 11 0,1
19.08.2019 17:00:00 16,6 14,1 32 17 42 23 SSW 1009,4 11 0,0
19.08.2019 16:00:00 16,3 12,7 31 17 41 22 S 1009,0 24 0,0
19.08.2019 15:00:00 16,2 13,1 35 19 52 28 SW 1008,9 11 0,2
19.08.2019 14:00:00 15,6 13,1 49 26 59 32 SW 1008,0 6 0,1
19.08.2019 13:00:00 17,8 14,3 40 22 48 26 SSW 1007,0 12 0,0
19.08.2019 12:00:00 16,7 13,0 37 20 55 30 SSW 1006,8 12 0,0
19.08.2019 11:00:00 16,7 11,6 44 24 55 30 SSW 1006,6 14 0,0
19.08.2019 10:00:00 17,2 14,1 44 24 50 27 SSW 1006,2 11 0,0
19.08.2019 09:00:00 17,1 14,2 37 20 46 25 SW 1005,8 11 0,0
19.08.2019 08:00:00 16,4 13,7 35 19 42 23 SW 1005,4 11 0,0
19.08.2019 07:00:00 15,9 13,6 33 18 44 24 SW 1005,1 11 0,0
19.08.2019 06:00:00 16,0 13,1 36 19 41 22 SW 1004,9 12 0,0
19.08.2019 05:00:00 15,8 12,9 34 18 42 23 SW 1004,5 11 0,0
19.08.2019 04:00:00 15,6 12,7 33 18 42 23 WSW 1004,0 13 0,0
19.08.2019 03:00:00 15,8 13,1 34 18 43 23 WSW 1003,7 12 0,0
19.08.2019 02:00:00 15,9 13,6 35 19 46 25 WSW 1003,6 13 0,0
19.08.2019 01:00:00 15,4 13,1 34 18 42 23 WSW 1003,0 25 0,0
19.08.2019 00:00:00 15,6 13,6 29 16 37 20 SW 1002,2 27 0,0
18.08.2019 23:00:00 15,7 14,2 26 14 32 17 SW 1001,7 7 0,0
18.08.2019 22:00:00 15,7 13,9 27 14 35 19 SSW 1001,5 16 0,4
18.08.2019 21:00:00 16,4 14,8 30 16 42 23 SSW 1001,5 9 0,1
18.08.2019 20:00:00 16,6 13,9 32 18 42 23 S 1001,4 15 0,0
18.08.2019 19:00:00 15,6 13,8 7 4 31 17 S 1002,1 16 1,1
18.08.2019 18:00:00 15,0 13,7 34 19 60 32 SW 1002,7 3,8 2,9
18.08.2019 17:00:00 16,7 15,4 24 13 40 21 SSE 1002,3 2,5 2,1
18.08.2019 16:00:00 18,3 14,4 24 13 28 15 S 1002,7 20 0,0
18.08.2019 15:00:00 17,9 14,4 19 10 27 14 S 1003,2 17 0,0
18.08.2019 14:00:00 17,8 14,5 22 12 28 15 S 1003,4 16 0,0
18.08.2019 13:00:00 17,5 14,4 21 11 25 13 S 1003,6 17 0,0
18.08.2019 12:00:00 17,3 14,2 17 9 25 13 S 1003,7 16 0,0
18.08.2019 11:00:00 17,3 14,2 15 8 18 10 S 1003,5 15 0,0
18.08.2019 10:00:00 16,6 13,9 11 6 16 9 S 1003,6 16 0,0
18.08.2019 09:00:00 16,5 14,0 14 7 17 9 S 1003,7 14 0,0
18.08.2019 08:00:00 16,3 14,0 10 6 14 8 SSW 1003,7 11 0,0
18.08.2019 07:00:00 16,2 14,2 9 5 17 9 SW 1003,8 10 0,0
18.08.2019 06:00:00 16,3 14,3 15 8 20 11 SW 1003,8 11 0,0
18.08.2019 05:00:00 16,2 13,9 20 11 29 15 WSW 1003,8 12 0,0
18.08.2019 04:00:00 16,4 14,1 22 12 32 17 WSW 1003,9 13 0,0
18.08.2019 03:00:00 16,7 14,0 28 15 34 19 SW 1004,2 12 0,0
18.08.2019 02:00:00 17,0 14,3 23 12 29 15 SSW 1003,9 11 0,0
18.08.2019 01:00:00 17,1 14,6 23 12 31 17 SW 1003,9 10 0,0
18.08.2019 00:00:00 17,3 14,8 26 14 31 17 SW 1003,6 - 0,0
17.08.2019 23:00:00 17,5 16,0 25 14 39 21 SSW 1003,3 9 0,0
17.08.2019 22:00:00 17,9 16,2 34 19 47 26 SSW 1002,9 8 0,0
17.08.2019 21:00:00 17,9 16,4 41 22 51 28 SSW 1002,5 8 0,0
17.08.2019 20:00:00 18,0 16,3 44 24 53 29 S 1002,2 9 0,0
17.08.2019 19:00:00 18,0 16,2 47 26 56 31 S 1001,9 10 0,0
17.08.2019 18:00:00 17,4 16,3 48 26 59 32 S 1001,9 4,0 0,1
17.08.2019 17:00:00 17,9 15,9 49 27 61 33 S 1001,9 9 0,0
17.08.2019 16:00:00 17,6 16,5 50 27 67 36 S 1001,9 8 0,9
17.08.2019 15:00:00 16,7 15,9 54 29 69 37 S 1002,0 1,6 0,6
17.08.2019 14:00:00 16,7 15,4 58 31 71 38 S 1002,1 2,6 0,1
17.08.2019 13:00:00 17,1 15,1 58 31 69 37 S 1002,4 7 0,0
17.08.2019 12:00:00 16,6 15,1 53 29 68 37 S 1003,0 4,6 0,3
17.08.2019 11:00:00 16,7 15,1 54 29 67 36 S 1003,5 5 0,9
17.08.2019 10:00:00 16,4 14,9 52 28 64 35 S 1004,1 3,8 0,7
17.08.2019 09:00:00 17,1 15,3 49 26 60 33 S 1004,4 6 0,0
17.08.2019 08:00:00 17,3 15,3 50 27 59 32 S 1005,0 4,3 0,8
17.08.2019 07:00:00 17,7 14,4 48 26 58 32 SSE 1005,2 14 0,0
17.08.2019 06:00:00 17,7 13,8 45 25 54 29 S 1005,7 19 0,0
17.08.2019 05:00:00 17,6 13,3 39 21 47 26 S 1006,6 18 0,0
17.08.2019 04:00:00 17,4 12,5 35 19 42 23 S 1007,3 21 0,0
17.08.2019 03:00:00 17,4 11,7 36 19 42 23 S 1008,3 36 0,0
17.08.2019 02:00:00 17,2 11,2 29 16 32 18 S 1008,8 42 0,0
17.08.2019 01:00:00 17,1 10,9 22 12 26 14 SSW 1009,4 44 0,0
17.08.2019 00:00:00 16,8 10,0 22 12 29 16 SW 1009,9 29 0,0
16.08.2019 23:00:00 16,8 10,4 22 12 32 17 SW 1010,4 32 0,0
16.08.2019 22:00:00 16,8 10,2 22 12 31 17 SW 1010,6 31 0,0
16.08.2019 21:00:00 17,2 9,4 26 14 35 19 SW 1010,4 35 0,0
16.08.2019 20:00:00 17,4 10,0 18 10 29 16 SW 1010,2 28 0,0
16.08.2019 19:00:00 17,2 11,0 25 14 32 17 SSW 1010,2 24 0,0
16.08.2019 18:00:00 17,4 10,3 16 9 24 13 SW 1010,3 25 0,0
16.08.2019 17:00:00 17,4 9,8 19 10 29 16 WSW 1010,5 26 0,0
16.08.2019 16:00:00 17,5 10,1 22 12 30 16 WSW 1010,5 27 0,0
16.08.2019 15:00:00 17,8 10,7 21 12 36 19 W 1010,5 31 0,0
16.08.2019 14:00:00 16,7 12,0 21 12 36 19 W 1010,3 29 0,0
16.08.2019 13:00:00 17,6 13,5 27 14 35 19 WSW 1009,9 30 0,0
16.08.2019 12:00:00 17,7 14,0 26 14 31 17 WSW 1009,4 21 0,0
16.08.2019 11:00:00 17,9 14,4 20 11 28 15 WSW 1009,1 33 0,0
16.08.2019 10:00:00 17,4 14,9 21 11 30 16 WSW 1008,7 31 0,0
16.08.2019 09:00:00 17,7 15,5 18 10 23 13 SW 1008,3 30 0,0
16.08.2019 08:00:00 17,1 15,6 11 6 19 11 SW 1007,8 13 0,0
16.08.2019 07:00:00 16,9 15,4 12 7 19 10 SW 1007,6 11 0,0
16.08.2019 06:00:00 16,8 15,3 16 9 21 12 SW 1007,3 10 0,0
16.08.2019 05:00:00 17,1 15,6 11 6 22 12 SSW 1006,9 14 0,0
16.08.2019 04:00:00 16,5 15,5 17 9 22 12 SE 1006,9 21 0,1
16.08.2019 03:00:00 16,1 15,0 18 10 28 15 SE 1006,8 37 0,0
16.08.2019 02:00:00 15,8 14,7 23 12 35 19 SE 1006,8 33 0,0

tt = Température de l'air
td = dewpoint
ff = Vitesse du vent
fx = gusts
dd = Direction du vent
ppp = reduced air pressure
vv = visibility
rr = Quantités de précipitations

stations d'obs. à proximité